Home   Weather   Denmark   Copenhagen   Past weeks
Flag for Denmark

Past Weather in Copenhagen, Denmark — February 2021

Currently: 55 °F. Cool. (Weather station: Koebenhavn-Kastrup Airport, Denmark). See more current weather

February 2021 Weather in Copenhagen — Graph

°F

High & Low Weather Summary for February 2021

 TemperatureHumidityPressure
High55 °F (Feb 24, 1:50 pm)100% (Feb 1, 12:20 am)30.72 "Hg (Feb 1, 12:20 am)
Low14 °F (Feb 13, 3:20 am)51% (Feb 12, 2:20 pm)29.50 "Hg (Feb 2, 4:20 am)
Average33 °F84%30.15 "Hg
* Reported Feb 1 12:20 am — Feb 28 11:50 pm, Copenhagen. Weather by CustomWeather, © 2022

Note: Actual official high and low records may vary slightly from our data, if they occured in-between our weather recording intervals... More about our weather records

Copenhagen Weather History for February 1, 2021

Scroll right to see more
 ConditionsComfort  
Time TempWeatherWind HumidityBarometerVisibility
12:20 am
Mon, Feb 1
25 °FFog.5 mph100%29.56 "Hg4 mi
12:50 am30 °FIce fog.9 mph100%29.56 "Hg0 mi
1:20 am30 °FIce fog.7 mph100%29.56 "Hg0 mi
1:50 am30 °FIce fog.8 mph100%29.56 "Hg0 mi
2:20 am32 °FIce fog.7 mph100%29.56 "Hg0 mi
2:50 am32 °FIce fog.5 mph100%29.56 "Hg1 mi
3:20 am32 °FIce fog.3 mph100%29.56 "Hg2 mi
3:50 am32 °FPassing clouds.2 mph100%29.53 "Hg5 mi
4:20 am32 °FPassing clouds.5 mph100%29.53 "HgN/A
4:50 am32 °FPassing clouds.7 mph100%29.53 "HgN/A
5:20 am32 °FPassing clouds.7 mph100%29.56 "HgN/A
5:50 am32 °FPassing clouds.6 mph93%29.56 "Hg5 mi
6:20 am32 °FPassing clouds.7 mph93%29.56 "Hg6 mi
6:50 am32 °FLow clouds.6 mph93%29.56 "Hg6 mi
7:20 am32 °FLow clouds.6 mph100%29.56 "Hg6 mi
7:50 am32 °FPassing clouds.8 mph93%29.56 "Hg6 mi
8:20 am32 °FPartly sunny.7 mph100%29.56 "Hg6 mi
8:50 am32 °FPartly sunny.3 mph93%29.56 "HgN/A
9:20 am32 °FScattered clouds.2 mph93%29.59 "Hg6 mi
9:50 am32 °FChilly.1 mph93%29.59 "HgN/A
10:20 am36 °FScattered clouds.3 mph87%29.59 "HgN/A
10:50 am36 °FScattered clouds.8 mph87%29.59 "HgN/A
11:20 am36 °FPassing clouds.9 mph81%29.59 "HgN/A
11:50 am36 °FPassing clouds.9 mph81%29.59 "HgN/A
12:20 pm36 °FChilly.9 mph81%29.59 "HgN/A
12:50 pm36 °FPassing clouds.10 mph75%29.59 "HgN/A
1:20 pm36 °FChilly.10 mph70%29.59 "HgN/A
1:50 pm36 °FChilly.9 mph70%29.59 "HgN/A
2:20 pm36 °FChilly.10 mph70%29.59 "HgN/A
2:50 pm36 °FChilly.10 mph81%29.59 "HgN/A
3:20 pm36 °FChilly.12 mph75%29.56 "HgN/A
3:50 pm34 °FChilly.12 mph81%29.56 "HgN/A
4:20 pm34 °FChilly.13 mph81%29.56 "HgN/A
4:50 pm34 °FPassing clouds.10 mph81%29.56 "HgN/A
5:20 pm34 °FPassing clouds.14 mph81%29.56 "HgN/A
5:50 pm32 °FPassing clouds.13 mph87%29.56 "HgN/A
6:20 pm32 °FChilly.10 mph87%29.56 "HgN/A
6:50 pm32 °FChilly.12 mph87%29.56 "HgN/A
7:20 pm32 °FChilly.9 mph87%29.56 "HgN/A
7:50 pm32 °FPassing clouds.7 mph87%29.56 "HgN/A
8:20 pm32 °FPassing clouds.12 mph80%29.56 "HgN/A
8:50 pm32 °FPassing clouds.10 mph87%29.56 "HgN/A
9:20 pm32 °FPassing clouds.8 mph87%29.56 "HgN/A
9:50 pm34 °FOvercast.8 mph81%29.53 "HgN/A
10:20 pm34 °FOvercast.8 mph75%29.53 "HgN/A
10:50 pm34 °FOvercast.12 mph75%29.53 "HgN/A
11:20 pm36 °FOvercast.9 mph70%29.53 "HgN/A
11:50 pm36 °FOvercast.9 mph60%29.53 "HgN/A
Weather by CustomWeather, © 2022

See weather overview